Regional Weather Roundup
Issued by NWS

Home | Current Version | Previous Version | Graphics & Text | Print | Product List | Glossary On
Versions: 1 2 3 4 5 6 7 8 9 10 11 12 13 14 15 16 17 18 19 20 21 22 23 24 25 26 27 28 29 30 31 32 33 34 35 36 37 38 39 40 41 42 43 44 45 46 47 48 49 50
903
ASUS43 KTOP 251808
RWRKS

WEATHER ROUNDUP FOR KANSAS
NATIONAL WEATHER SERVICE GOODLAND KS
100 PM CDT WED MAY 25 2016

NOTE:  "FAIR" INDICATES FEW OR NO CLOUDS BELOW 12,000 FEET WITH NO
SIGNIFICANT WEATHER AND/OR OBSTRUCTIONS TO VISIBILITY.

KSZ001>006-013>018-027>032-041>047-251900-
NORTHWEST KANSAS

CITY           SKY/WX    TMP DP  RH WIND       PRES   REMARKS
GOODLAND       CLOUDY    67  55  65 SE6       29.95R
6HR MIN TEMP:  55; 6HR MAX TEMP:  67;

HAYS           PTSUNNY   63  61  94 E12       29.86S
HILL CITY      CLOUDY    68  61  78 E7        29.88S
6HR MIN TEMP:  61; 6HR MAX TEMP:  68;

RUSSELL        CLOUDY    69  64  84 NE9       29.85R
6HR MIN TEMP:  63; 6HR MAX TEMP:  69;

$$

KSZ061>065-074>080-084>089-251900-
SOUTHWEST KANSAS

CITY           SKY/WX    TMP DP  RH WIND       PRES   REMARKS
DODGE CITY     SUNNY     77  64  64 W12       29.87R
6HR MIN TEMP:  64; 6HR MAX TEMP:  77;

ELKHART          N/A     83  37  19 S6          N/A
GARDEN CITY    SUNNY     77  60  55 VRB6      29.89R
6HR MIN TEMP:  53; 6HR MAX TEMP:  77;

GREAT BEND     PTSUNNY   79  63  57 S10       29.83S
LIBERAL        SUNNY     82  50  32 N3        29.91F
PRATT          SUNNY     80  62  55 SW10      29.84S
6HR MIN TEMP:  63; 6HR MAX TEMP:  80;

$$

KSZ066>073-081>083-090>101-251900-
SOUTHEAST KANSAS

CITY           SKY/WX    TMP DP  RH WIND       PRES   REMARKS
CHANUTE        PTSUNNY   80  64  58 S16       29.91F
6HR MIN TEMP:  66; 6HR MAX TEMP:  80;

COFFEYVILLE    SUNNY     79  67  66 S14G28    29.90R
6HR MIN TEMP:  65; 6HR MAX TEMP:  80; 6HR PCP:  0.03;

HUTCHINSON     PTSUNNY   81  72  74 S15       29.83F
6HR MIN TEMP:  66; 6HR MAX TEMP:  81;

MEDICINE LODGE   N/A     87  62  43 S13       29.81S
NEWTON         CLOUDY    77  68  73 S15       29.88S
PARSONS        SUNNY     80  64  58 S16G24    29.92R
6HR MIN TEMP:  65; 6HR MAX TEMP:  81;

WICHITA INTL   CLOUDY    79  70  74 S15G28    29.84S
6HR MIN TEMP:  67; 6HR MAX TEMP:  80;

WICHITA JABRA  CLOUDY    77  70  79 S21       29.85S
WICHITA MCCONL PTSUNNY   79  72  78 S13       29.85S
WINFIELD       PTSUNNY   81  71  71 S21G30    29.86F
6HR MIN TEMP:  66; 6HR MAX TEMP:  81;

$$

KSZ007>012-019>026-033>040-048>060-102>105-251900-
NORTHEAST KANSAS

CITY           SKY/WX    TMP DP  RH WIND       PRES   REMARKS
CONCORDIA      CLOUDY    69  62  78 SE14      29.86F
6HR MIN TEMP:  60; 6HR MAX TEMP:  69; 6HR PCP:  0.02;

EMPORIA        CLOUDY    74  65  73 S15G24    29.90R
6HR MIN TEMP:  65; 6HR MAX TEMP:  76;

LAWRENCE       PTSUNNY   75  64  68 E7        29.92S
6HR MIN TEMP:  68; 6HR MAX TEMP:  77;

MANHATTAN      CLOUDY    75  66  73 S9G18     29.86F
6HR MIN TEMP:  64; 6HR MAX TEMP:  75; 6HR PCP:  0.01;

MARYSVILLE     CLOUDY    70  63  78 SE12G21   29.87F
OLATHE IND     CLOUDY    75  61  61 NE7       29.95R
6HR MIN TEMP:  67; 6HR MAX TEMP:  76;

OLATHE EXE     CLOUDY    73  63  70 NE7       29.95R
6HR MIN TEMP:  68; 6HR MAX TEMP:  76; 6HR PCP:  0.01;

SALINA         PTSUNNY   81  70  69 S14       29.84F
6HR MIN TEMP:  64; 6HR MAX TEMP:  80;

TOPEKA BILLARD CLOUDY    72  63  73 SE12      29.90F
6HR MIN TEMP:  66; 6HR MAX TEMP:  76; 6HR PCP: TRACE;

TOPEKA FORBES  CLOUDY    76  64  66 E12       29.91R
6HR MIN TEMP:  67; 6HR MAX TEMP:  79;

$$




USA.gov is the U.S. government's official web portal to all federal, state and local government web resources and services.